Stevens Pass
Stevens Pass Ski Area - Tye Mill Chair, Skyline Chair
Latest observation 09/03 18:00 PDT
| Time (PDT) | Temp °F 5180' | Temp °F 5250' | RH % 5250' | Min mph 5180' | Spd mph 5180' | Gust mph 5180' | Dir ° 5180' |
|---|---|---|---|---|---|---|---|
| 09/03 18:00 | 42 | – | – | 0 | 6 | 14 | 257 |
| 09/03 17:00 | 43 | 45 | 87 | 1 | 7 | 13 | 260 |
| 09/03 16:00 | 45 | 46 | 86 | 0 | 3 | 11 | 275 |
| 09/03 15:00 | 46 | 48 | 74 | 0 | 2 | 7 | 271 |
| 09/03 14:00 | 46 | 47 | 79 | 0 | 3 | 9 | 255 |
| 09/03 13:00 | 48 | 48 | 71 | 0 | 0 | 3 | 26 |
| 09/03 12:00 | 48 | 50 | 64 | 0 | 1 | 4 | 284 |
| 09/03 11:00 | 47 | 46 | 73 | 0 | 1 | 5 | 289 |
| 09/03 10:00 | 43 | 43 | 77 | 0 | 1 | 4 | 301 |
| 09/03 09:00 | 41 | 42 | 82 | 0 | 1 | 6 | 288 |
| 09/03 08:00 | 40 | 41 | 87 | 0 | 1 | 5 | 297 |
| 09/03 07:00 | 38 | 38 | 87 | 0 | 2 | 6 | 280 |
| 09/03 06:00 | 38 | 38 | 85 | 0 | 5 | 10 | 282 |
| 09/03 05:00 | 38 | 38 | 87 | 0 | 1 | 8 | 303 |
| 09/03 04:00 | 38 | 38 | 89 | 0 | 1 | 7 | 280 |
| 09/03 03:00 | 37 | 37 | 89 | 0 | 1 | 6 | 287 |
| 09/03 02:00 | 38 | 37 | 90 | 0 | 2 | 8 | 296 |
| 09/03 01:00 | 37 | 38 | 91 | 0 | 4 | 14 | 284 |
| 09/03 00:00 | 39 | 39 | 93 | 0 | 4 | 15 | 287 |
| 09/02 23:00 | 39 | 39 | 93 | 0 | 7 | 22 | 290 |
| 09/02 22:00 | 40 | 40 | 93 | 0 | 3 | 10 | 285 |
| 09/02 21:00 | 42 | 42 | 94 | 0 | 3 | 20 | 264 |
| 09/02 20:00 | 44 | 44 | 86 | 0 | 4 | 11 | 109 |
| 09/02 19:00 | 44 | 44 | 88 | 0 | 6 | 17 | 164 |
| 09/02 18:00 | 45 | 46 | 89 | 0 | 4 | 13 | 210 |
| 09/02 17:00 | 47 | 48 | 87 | 0 | 8 | 19 | 129 |
| 09/02 16:00 | 51 | 51 | 79 | 3 | 9 | 15 | 97 |
| 09/02 15:00 | 51 | 49 | 80 | 0 | 4 | 10 | 178 |
| 09/02 14:00 | 50 | 50 | 75 | 0 | 1 | 5 | 278 |
| 09/02 13:00 | 51 | 51 | 71 | 0 | 3 | 10 | 252 |
| 09/02 12:00 | 51 | 53 | 71 | 0 | 3 | 9 | 287 |
| 09/02 11:00 | 47 | 51 | 77 | 0 | 2 | 8 | 276 |
| 09/02 10:00 | 45 | 47 | 87 | 0 | 3 | 8 | 282 |
| 09/02 09:00 | 44 | 45 | 91 | 0 | 2 | 9 | 286 |
| 09/02 08:00 | 43 | 43 | 97 | 0 | 2 | 8 | 284 |
| 09/02 07:00 | 43 | 43 | 96 | 0 | 3 | 11 | 293 |
| 09/02 06:00 | 44 | 44 | 96 | 0 | 2 | 10 | 280 |
| 09/02 05:00 | 44 | 44 | 93 | 0 | 3 | 9 | 284 |
| 09/02 04:00 | 44 | 44 | 93 | 0 | 4 | 15 | 286 |
| 09/02 03:00 | 44 | 45 | 94 | 0 | 4 | 14 | 281 |
| 09/02 02:00 | 44 | 45 | 93 | 0 | 5 | 14 | 277 |
| 09/02 01:00 | 44 | 45 | 94 | 0 | 5 | 13 | 269 |
| 09/02 00:00 | 45 | 45 | 97 | 0 | 2 | 9 | 255 |
| 09/01 23:00 | 45 | 46 | 96 | 0 | 2 | 10 | 295 |
| 09/01 22:00 | 45 | 46 | 96 | 0 | 8 | 16 | 290 |
| 09/01 21:00 | 46 | 47 | 95 | 4 | 13 | 20 | 285 |
| 09/01 20:00 | 46 | 47 | 96 | 0 | 7 | 20 | 279 |
| 09/01 19:00 | 47 | 47 | 95 | 0 | 5 | 15 | 291 |
| 09/01 18:00 | 47 | 49 | 94 | 0 | 8 | 18 | 293 |
| 09/01 17:00 | 48 | 49 | 94 | 4 | 13 | 20 | 253 |
| 09/01 16:00 | 51 | 54 | 83 | 7 | 11 | 20 | 263 |
| 09/01 15:00 | 55 | 57 | 75 | 2 | 15 | 24 | 268 |
| 09/01 14:00 | 52 | 56 | 79 | 3 | 16 | 26 | 259 |
| 09/01 13:00 | 57 | 61 | 60 | 0 | 11 | 19 | 256 |
| 09/01 12:00 | 57 | 61 | 58 | 3 | 8 | 16 | 262 |
| 09/01 11:00 | 57 | 62 | 58 | 2 | 5 | 11 | 278 |
| 09/01 10:00 | 56 | 60 | 58 | 1 | 5 | 8 | 285 |
| 09/01 09:00 | 53 | 54 | 66 | 2 | 6 | 11 | 277 |
| 09/01 08:00 | 54 | 52 | 70 | 1 | 4 | 8 | 273 |
| 09/01 07:00 | 55 | 51 | 60 | 0 | 2 | 4 | 264 |
| 09/01 06:00 | 55 | 53 | 50 | 0 | 2 | 5 | 92 |
| 09/01 05:00 | 57 | 57 | 41 | 0 | 2 | 5 | 81 |
| 09/01 04:00 | 56 | 54 | 44 | 0 | 3 | 5 | 95 |
| 09/01 03:00 | 56 | 57 | 41 | 0 | 3 | 9 | 101 |
| 09/01 02:00 | 57 | 56 | 44 | 2 | 6 | 11 | 116 |
| 09/01 01:00 | 55 | 58 | 43 | 3 | 5 | 9 | 113 |
| 09/01 00:00 | 56 | 58 | 44 | 0 | 5 | 8 | 105 |
| 08/31 23:00 | 56 | 58 | 42 | 3 | 5 | 7 | 94 |
| 08/31 22:00 | 57 | 58 | 46 | 2 | 4 | 6 | 94 |
| 08/31 21:00 | 57 | 58 | 47 | 2 | 5 | 8 | 104 |
| 08/31 20:00 | 59 | 59 | 48 | 0 | 5 | 9 | 77 |
| 08/31 19:00 | 61 | 60 | 46 | 0 | 6 | 12 | 45 |
| 08/31 18:00 | 62 | 61 | 45 | 0 | 5 | 10 | 47 |
| 08/31 17:00 | 64 | 62 | 44 | 0 | 2 | 10 | 67 |
| 08/31 16:00 | 66 | 62 | 45 | 0 | 2 | 9 | 82 |
| 08/31 15:00 | 65 | 61 | 46 | 0 | 2 | 12 | 67 |
| 08/31 14:00 | 64 | 60 | 50 | 0 | 2 | 8 | 68 |
| 08/31 13:00 | 64 | 58 | 55 | 0 | 2 | 9 | 92 |
| 08/31 12:00 | 62 | 56 | 60 | 0 | 3 | 8 | 101 |
| 08/31 11:00 | 59 | 53 | 65 | 0 | 4 | 8 | 101 |
| 08/31 10:00 | 55 | 50 | 73 | 2 | 5 | 9 | 99 |
| 08/31 09:00 | 53 | 50 | 75 | 5 | 7 | 10 | 101 |
| 08/31 08:00 | 51 | 48 | 77 | 5 | 7 | 9 | 98 |
| 08/31 07:00 | 46 | 51 | 67 | 5 | 7 | 8 | 95 |
| 08/31 06:00 | 46 | 49 | 72 | 4 | 6 | 9 | 103 |
| 08/31 05:00 | 46 | 51 | 66 | 5 | 7 | 9 | 95 |
| 08/31 04:00 | 47 | 51 | 66 | 4 | 6 | 8 | 92 |
| 08/31 03:00 | 48 | 46 | 87 | 0 | 2 | 6 | 155 |
| 08/31 02:00 | 49 | 46 | 85 | 0 | 2 | 5 | 241 |
| 08/31 01:00 | 50 | 45 | 90 | 0 | 3 | 9 | 293 |
| 08/31 00:00 | 44 | 44 | 92 | 1 | 6 | 9 | 288 |
| 08/30 23:00 | 43 | 43 | 93 | 2 | 6 | 10 | 268 |
| 08/30 22:00 | 43 | 44 | 92 | 2 | 8 | 13 | 272 |
| 08/30 21:00 | 44 | 44 | 91 | 1 | 9 | 14 | 277 |
| 08/30 20:00 | 44 | 44 | 92 | 4 | 10 | 15 | 267 |
| 08/30 19:00 | 44 | 45 | 90 | 2 | 10 | 17 | 267 |
| 08/30 18:00 | 44 | 46 | 85 | 0 | 9 | 14 | 261 |
| 08/30 17:00 | 45 | 46 | 85 | 0 | 10 | 18 | 263 |
| 08/30 16:00 | 45 | 46 | 86 | 2 | 8 | 18 | 268 |
| 08/30 15:00 | 46 | 46 | 84 | 0 | 10 | 16 | 265 |
| 08/30 14:00 | 43 | 45 | 86 | 4 | 12 | 19 | 257 |
| 08/30 13:00 | 44 | 44 | 86 | 4 | 10 | 19 | 261 |
| 08/30 12:00 | 43 | 44 | 88 | 5 | 9 | 17 | 260 |
| 08/30 11:00 | 41 | 42 | 91 | 5 | 10 | 17 | 264 |
| 08/30 10:00 | 40 | 42 | 90 | 2 | 10 | 16 | 271 |
| 08/30 09:00 | 40 | 41 | 92 | 0 | 8 | 15 | 269 |
| 08/30 08:00 | 40 | 42 | 94 | 3 | 7 | 12 | 273 |
| 08/30 07:00 | 40 | 40 | 95 | 4 | 10 | 17 | 273 |
| 08/30 06:00 | 40 | 40 | 95 | 3 | 10 | 19 | 274 |
| 08/30 05:00 | 40 | 40 | 96 | 5 | 11 | 20 | 272 |
| 08/30 04:00 | 40 | 40 | 93 | 1 | 8 | 15 | 273 |
| 08/30 03:00 | 40 | 41 | 94 | 1 | 5 | 10 | 277 |
| 08/30 02:00 | 40 | 41 | 93 | 1 | 6 | 14 | 276 |
| 08/30 01:00 | 41 | 40 | 93 | 3 | 10 | 18 | 272 |
| 08/30 00:00 | 40 | 40 | 92 | 6 | 13 | 19 | 274 |
| 08/29 23:00 | 41 | 41 | 94 | 7 | 13 | 19 | 270 |
| 08/29 22:00 | 41 | 41 | 92 | 1 | 6 | 14 | 275 |
| 08/29 21:00 | 41 | 41 | 92 | 0 | 7 | 15 | 271 |
| 08/29 20:00 | 41 | 41 | 92 | 5 | 14 | 25 | 273 |
| 08/29 19:00 | 41 | 42 | 93 | 3 | 11 | 22 | 277 |
| 08/29 18:00 | 41 | 42 | 90 | 4 | 14 | 23 | 272 |
| 08/29 17:00 | 41 | 44 | 85 | 0 | 14 | 30 | 282 |
| 08/29 16:00 | 40 | 43 | 90 | 1 | 12 | 26 | 291 |
| 08/29 15:00 | 39 | 42 | 92 | 1 | 17 | 29 | 279 |
| 08/29 14:00 | 40 | 41 | 93 | 1 | 19 | 28 | 284 |
| 08/29 13:00 | 39 | 41 | 93 | 0 | 17 | 31 | 289 |
| 08/29 12:00 | 39 | 41 | 94 | 1 | 11 | 29 | 301 |
| 08/29 11:00 | 39 | 40 | 95 | 2 | 16 | 28 | 289 |
| 08/29 10:00 | 39 | 39 | 96 | 0 | 9 | 25 | 299 |
| 08/29 09:00 | 39 | 40 | 96 | 2 | 14 | 27 | 293 |
| 08/29 08:00 | 40 | 40 | 97 | 0 | 10 | 24 | 289 |
| 08/29 07:00 | 40 | 40 | 96 | 0 | 10 | 22 | 283 |
| 08/29 06:00 | 41 | 42 | 94 | 0 | 8 | 15 | 278 |
| 08/29 05:00 | 41 | 42 | 93 | 4 | 10 | 17 | 275 |
| 08/29 04:00 | 41 | 42 | 94 | 5 | 12 | 20 | 275 |
| 08/29 03:00 | 43 | 43 | 95 | 1 | 9 | 18 | 277 |
| 08/29 02:00 | 44 | 44 | 94 | 4 | 9 | 16 | 269 |
| 08/29 01:00 | 44 | 45 | 91 | 0 | 7 | 17 | 293 |
| 08/29 00:00 | 45 | 45 | 90 | 0 | 7 | 14 | 284 |
| 08/28 23:00 | 45 | 45 | 92 | 0 | 5 | 16 | 290 |
| 08/28 22:00 | 45 | 45 | 91 | 5 | 14 | 23 | 281 |
| 08/28 21:00 | 46 | 46 | 91 | 1 | 11 | 20 | 291 |
| 08/28 20:00 | 47 | 47 | 88 | 0 | 6 | 20 | 299 |
| 08/28 19:00 | 48 | 49 | 81 | 0 | 5 | 16 | 307 |
| 08/28 18:00 | 53 | 53 | 71 | 0 | 4 | 15 | 298 |
| 08/28 17:00 | 56 | 56 | 59 | 0 | 4 | 15 | 291 |
| 08/28 16:00 | 58 | 58 | 56 | 0 | 5 | 14 | 282 |
| 08/28 15:00 | 59 | 60 | 52 | 0 | 4 | 13 | 285 |
| 08/28 14:00 | 58 | 59 | 54 | 0 | 3 | 9 | 286 |
| 08/28 13:00 | 56 | 54 | 67 | 0 | 3 | 9 | 284 |
| 08/28 12:00 | 52 | 53 | 72 | 0 | 6 | 14 | 284 |
| 08/28 11:00 | 49 | 51 | 77 | 0 | 5 | 12 | 277 |
| 08/28 10:00 | 47 | 49 | 81 | 0 | 2 | 8 | 286 |
| 08/28 09:00 | 45 | 47 | 85 | 0 | 5 | 10 | 278 |
| 08/28 08:00 | 44 | 46 | 91 | 2 | 7 | 11 | 271 |
| 08/28 07:00 | 44 | 45 | 92 | 0 | 4 | 9 | 276 |
| 08/28 06:00 | 44 | 45 | 94 | 0 | 5 | 12 | 276 |
| 08/28 05:00 | 44 | 45 | 94 | 2 | 5 | 11 | 268 |
| 08/28 04:00 | 45 | 45 | 93 | 2 | 7 | 12 | 266 |
| 08/28 03:00 | 45 | 45 | 90 | 3 | 6 | 12 | 258 |
| 08/28 02:00 | 45 | 46 | 90 | 1 | 6 | 15 | 262 |
| 08/28 01:00 | 45 | 46 | 93 | 0 | 11 | 21 | 282 |
| 08/28 00:00 | 46 | 46 | 92 | 0 | 14 | 21 | 275 |
| 08/27 23:00 | 46 | 47 | 92 | 0 | 14 | 21 | 274 |
| 08/27 22:00 | 47 | 48 | 88 | 6 | 13 | 22 | 268 |
| 08/27 21:00 | 48 | 48 | 87 | 5 | 14 | 21 | 281 |
| 08/27 20:00 | 48 | 48 | 84 | 1 | 9 | 23 | 293 |
| 08/27 19:00 | 49 | 51 | 76 | 0 | 7 | 18 | 284 |

